This is the latest recevied weather packets stored in our database for station/object N5JXS. If no packets are shown the sender has not sent any weather packets the latest 10 day(s).
| Time | Temp. | Humidity | Pressure | Rain* | Wind** | Luminosity | Snow |
|---|---|---|---|---|---|---|---|
| 1787855876 | 22.78° C | 52% | 1031.4 hPa | 0 mm | - | 50 W/m² | - |
| 1787855579 | 22.78° C | 53% | 1031.4 hPa | 0 mm | - | 103 W/m² | - |
| 1787855266 | 23.33° C | 51% | 1031.1 hPa | 0 mm | - | 120 W/m² | - |
| 1787854962 | 23.89° C | 50% | 1031.2 hPa | 0 mm | - | 115 W/m² | - |
| 1787854657 | 24.44° C | 48% | 1031.2 hPa | 0 mm | - | 132 W/m² | - |
| 1787854357 | 25° C | 46% | 1031.4 hPa | 0 mm | - | 186 W/m² | - |
| 1787854052 | 25.56° C | 47% | 1031.4 hPa | 0 mm | - | 821 W/m² | - |
| 1787853751 | 25° C | 47% | 1031.6 hPa | 0 mm | - | 717 W/m² | - |
| 1787853445 | 25° C | 48% | 1031.3 hPa | 0 mm | - | 662 W/m² | - |
| 1787853144 | 24.44° C | 46% | 1031.9 hPa | 0 mm | - | 631 W/m² | - |
| 1787852839 | 24.44° C | 50% | 1031.8 hPa | 0 mm | - | 590 W/m² | - |
| 1787852538 | 24.44° C | 49% | 1031.8 hPa | 0 mm | - | 592 W/m² | - |
| 1787852232 | 23.89° C | 50% | 1031.7 hPa | 0 mm | - | 597 W/m² | - |
| 1787851927 | 23.89° C | 51% | 1031.9 hPa | 0 mm | - | 606 W/m² | - |
| 1787851627 | 23.33° C | 51% | 1031.8 hPa | 0 mm | - | 636 W/m² | - |
| 1787851321 | 23.33° C | 50% | 1032.1 hPa | 0 mm | - | 654 W/m² | - |
| 1787851017 | 23.33° C | 52% | 1031.8 hPa | 0 mm | - | 649 W/m² | - |
| 1787850713 | 23.33° C | 52% | 1031.9 hPa | 0 mm | - | 647 W/m² | - |
| 1787850408 | 23.33° C | 52% | 1031.9 hPa | 0 mm | - | 627 W/m² | - |
| 1787850103 | 23.33° C | 53% | 1032.1 hPa | 0 mm | - | 594 W/m² | - |
| 1787849803 | 22.78° C | 51% | 1032.2 hPa | 0 mm | - | 570 W/m² | - |
| 1787849497 | 22.78° C | 55% | 1032.1 hPa | 0 mm | - | 568 W/m² | - |
| 1787849203 | 22.22° C | 58% | 1032.2 hPa | 0 mm | - | 480 W/m² | - |
| 1787848896 | 21.11° C | 57% | 1032.1 hPa | 0 mm | - | 486 W/m² | - |
| 1787848591 | 21.11° C | 58% | 1032.1 hPa | 0 mm | - | 612 W/m² | - |
* Rain latest hour (hover to see other rain measurements)
** Current wind speed in m/s (hover to see current wind gust speed)